Regional Weather Roundup
Issued by NWS Albany, NY

Home | Current Version | Previous Version | Graphics & Text | Print | Product List | Glossary On
Versions: 1 2 3 4 5 6 7 8 9 10 11 12 13 14 15 16 17 18 19 20 21 22 23 24 25 26 27 28 29 30 31 32 33 34 35 36 37 38 39 40 41 42 43 44 45 46 47 48 49 50
000
ASUS41 KALY 311910
RWRALY

NEW YORK STATE HOURLY WEATHER ROUNDUP
NATIONAL WEATHER SERVICE ALBANY NY
200 PM EST SAT JAN 31 2015

NOTE: "FAIR" INDICATES FEW OR NO CLOUDS BELOW 12,000 FEET WITH NO
SIGNIFICANT WEATHER AND/OR NO OBSTRUCTIONS TO VISIBILITY.

NYZ032-033-038>043-046>054-057>066-NYZ062>081-312000-
EAST


CITY           SKY/WX    TMP DP  RH WIND       PRES   REMARKS
ALBANY         SUNNY     13  -7  40 W21G30    30.13F WCI  -5
GLENS FALLS    SUNNY     13  -7  40 SE6       30.10F WCI   4
POUGHKEEPSIE   SUNNY     24  -3  30 NW18G24   30.08F WCI  10
NEWBURGH       SUNNY     21   0  39 NW29      30.08  WCI   3
MONTGOMERY     SUNNY     21  -4  33 NW21G26   30.09S WCI   5
WHITE PLAINS   SUNNY     22   0  38 NW23G32   30.03S WCI   6
ISLIP          SUNNY     23   1  38 NW23G29   30.02S WCI   7
NEW YORK CITY  SUNNY     25   2  37 NW22G31   30.09F WCI  10
CENTRAL PARK   SUNNY     25  -2  31 VRB6G21   30.11F WCI  18
$$

NYZ005>009-017-018-044>046-055-056-312000-
CENTRAL


CITY           SKY/WX    TMP DP  RH WIND       PRES   REMARKS
FULTON         CLOUDY    13   3  64 N7        30.26F WCI   3
SYRACUSE       PTSUNNY   13   2  61 W10       30.25F WCI   0
ROME           SUNNY     11  -4  51 W15       30.24F WCI  -5
ELMIRA         MOSUNNY   20   6  55 N7        30.20F WCI  11
BINGHAMTON     CLOUDY    13   3  64 NW16      30.12S WCI  -3
MONTICELLO     SUNNY     16   0  48 NW18G30   30.05F WCI  -1
$$

NYZ026>034-041>043-312000-
NORTH


CITY           SKY/WX    TMP DP  RH WIND       PRES   REMARKS
WATERTOWN      CLOUDY     7  -7  52 W8        30.27F WCI  -6
FORT DRUM      NOT AVBL
MASSENA        SUNNY      3 -14  45 SW10      30.25F WCI -12
SARANAC LAKE   SUNNY      4 -11  50 W12       30.02F WCI -12
PLATTSBURGH    SUNNY     13 -12  32 W10       30.13F WCI   0
$$

NYZ001>004-010>016-019>021-312000-
WEST


CITY           SKY/WX    TMP DP  RH WIND       PRES   REMARKS
NIAGARA FALLS  FLURRIES  21  13  71 SW14      30.22F WCI   8
BUFFALO        FLURRIES  20  11  68 SW13      30.22F WCI   7
DUNKIRK        CLOUDY    23  11  60 SW15G23   30.23F WCI  10
JAMESTOWN      MOSUNNY   18   9  68 SW13      30.16F WCI   4
WELLSVILLE     MIX PCPN  18   5  57 W10       30.12F WCI   6
ROCHESTER      PTSUNNY   20   8  60 W8        30.23F WCI  10
PENN YAN       CLOUDY    18   7  62 N3        30.21F
$$

             KEY
       WCI = WIND CHILL INDEX
       VSB = VISIBILITY
       HX  = HEAT INDEX
$$



USA.gov is the U.S. government's official web portal to all federal, state and local government web resources and services.